Regional Weather Roundup
Issued by NWS

Home | Current Version | Previous Version | Text Only | Print | Product List | Glossary On
Versions: 1 2 3 4 5 6 7 8 9 10 11 12 13 14 15 16 17 18 19 20 21 22 23 24 25 26 27 28 29 30 31 32 33 34 35 36 37 38 39 40 41 42 43 44 45 46 47 48 49 50
000
ASUS44 KLIX 240311
RWRLA
LOUISIANA WEATHER ROUNDUP
NATIONAL WEATHER SERVICE NEW ORLEANS LA
1000 PM CDT SAT MAY 23 2015

NOTE: "FAIR" INDICATES FEW OR NO CLOUDS BELOW 12,000 FEET WITH NO
      SIGNIFICANT WEATHER AND/OR OBSTRUCTIONS TO VISIBILITY.
      SKY/WX - SKY CONDITION AND SIGNIFICANT WEATHER.
      TMP - AIR TEMPERATURE.    DP   - DEWPOINT TEMPERATURE.
      RH  - RELATIVE HUMIDITY.  PRES - PRESSURE.
      HX  - HEAT INDEX.         WCI  - WIND CHILL INDEX.

*  THESE STATIONS ARE NOT NWS OR FAA STATIONS AND ARE NOT UNDER
   NWS QUALITY CONTROL.

LAZ040-048-061>063-065-066-069-240400-
SOUTHEAST LOUISIANA

CITY           SKY/WX    TMP DP  RH WIND       PRES   REMARKS
N.O. AUDUBON     N/A     79  73  83 MISG        N/A
N.O. INTL ARPT PTCLDY    79  69  71 SE13      30.11R
N.O. LAKEFRONT CLEAR     82  70  66 SE14      30.11S
SLIDELL        PTCLDY    76  71  85 E6        30.11F
BATON ROUGE    PTCLDY    76  71  85 E7        30.10R
BOOTHVILLE     CLEAR     78  74  87 E7        30.12S
BELLE CHASSE   PTCLDY    79  70  74 SE10      30.11R
BOGALUSA*        N/A     76  67  72 CALM      30.14S
GALLIANO*      MOCLDY    81  73  76 SE3       30.11R
NEW ROADS*     MOCLDY    74  72  92 CALM      30.09R
GONZALES*      FAIR      76  72  86 CALM      30.09R
HAMMOND*       PTCLDY    77  68  73 E6        30.13R
HOUMA*         CLEAR     77  73  87 E7        30.09S
PORT FOURCHON* PTCLDY    81  73  78 SE15G21   30.11R

$$

LAZ041-044-053-054-240400-
SOUTHWEST LOUISIANA

CITY           SKY/WX    TMP DP  RH WIND       PRES   REMARKS
LAKE CHARLES   CLEAR     77  73  87 SE9       30.04R
LAFAYETTE      PTCLDY    74  72  93 VRB3      30.08R
PATTERSON      PTCLDY    77  72  83 SE7       30.10R
SALT POINT       N/A     78  74  87 SE6       30.07R
NEW IBERIA     PTCLDY    76  73  91 E5        30.08R
CHENAULT AIRPK CLEAR     75  72  88 SE8       30.05

$$

LAZ027-028-240400-
CENTRAL LOUISIANA

CITY           SKY/WX    TMP DP  RH WIND       PRES   REMARKS
FORT POLK      NOT AVBL
ALEXANDRIA INT PTCLDY    74  70  87 E8        30.05R
ALEXANDRIA     PTCLDY    75  70  84 CALM      30.08R

$$

LAZ001-002-240400-
NORTHWEST LOUISIANA

CITY           SKY/WX    TMP DP  RH WIND       PRES   REMARKS
SHREVEPORT     CLOUDY    75  70  84 SE6       30.02F
BARKSDALE AFB  NOT AVBL
DTN SHREVEPORT CLOUDY    75  70  84 SE7       30.02F

$$

LAZ014-016-240400-
NORTHEAST LOUISIANA

CITY           SKY/WX    TMP DP  RH WIND       PRES   REMARKS
MONROE         PTCLDY    78  69  73 SE7       30.09R
TALLULAH       CLOUDY    76  69  79 SE3       30.10R

$$




USA.gov is the U.S. government's official web portal to all federal, state and local government web resources and services.